status,avgMeasuredTime,avgSpeed,extID,medianMeasuredTime,TIMESTAMP,vehicleCount,_id,REPORT_ID
OK,108,46,878,108,2014-08-01T08:00:00,0,20746933,206369
OK,108,46,878,108,2014-08-01T08:05:00,0,20747382,206369
OK,140,36,878,140,2014-08-01T08:10:00,1,20747755,206369
OK,140,36,878,140,2014-08-01T08:15:00,1,20748204,206369
OK,140,36,878,140,2014-08-01T08:20:00,0,20748653,206369
OK,140,36,878,140,2014-08-01T08:25:00,0,20749102,206369
OK,186,27,878,186,2014-08-01T08:30:00,2,20749551,206369
OK,186,27,878,186,2014-08-01T08:35:00,2,20750000,206369
OK,186,27,878,186,2014-08-01T08:40:00,0,20750449,206369
OK,186,27,878,186,2014-08-01T08:45:00,0,20750898,206369
OK,186,27,878,186,2014-08-01T08:50:00,0,20751347,206369
OK,186,27,878,186,2014-08-01T08:55:00,0,20751796,206369
OK,186,27,878,186,2014-08-01T09:00:00,0,20752245,206369
OK,186,27,878,186,2014-08-01T09:05:00,0,20752694,206369
OK,186,27,878,186,2014-08-01T09:10:00,0,20753143,206369
OK,186,27,878,186,2014-08-01T09:15:00,0,20753592,206369
OK,186,27,878,186,2014-08-01T09:20:00,0,20754041,206369
OK,186,27,878,186,2014-08-01T09:25:00,0,20754490,206369
OK,186,27,878,186,2014-08-01T09:30:00,0,20754939,206369
OK,186,27,878,186,2014-08-01T09:35:00,0,20755388,206369
OK,186,27,878,186,2014-08-01T09:40:00,0,20755837,206369
OK,186,27,878,186,2014-08-01T09:45:00,0,20756286,206369
OK,186,27,878,186,2014-08-01T09:50:00,0,20756735,206369
OK,186,27,878,186,2014-08-01T09:55:00,0,20757184,206369
OK,186,27,878,186,2014-08-01T10:00:00,0,20757633,206369
OK,127,39,878,127,2014-08-01T10:05:00,1,20758082,206369
OK,127,39,878,127,2014-08-01T10:10:00,1,20758531,206369
OK,127,39,878,127,2014-08-01T10:15:00,0,20758980,206369
OK,127,39,878,127,2014-08-01T10:20:00,0,20759429,206369
OK,127,39,878,127,2014-08-01T10:25:00,0,20759878,206369
OK,138,36,878,138,2014-08-01T10:30:00,1,20760327,206369
OK,138,36,878,138,2014-08-01T10:35:00,0,20760776,206369
OK,138,36,878,138,2014-08-01T10:40:00,0,20761225,206369
OK,88,57,878,88,2014-08-01T10:45:00,1,20761674,206369
OK,104,48,878,104,2014-08-01T10:50:00,2,20762123,206369
OK,120,42,878,120,2014-08-01T10:55:00,1,20762572,206369
OK,105,48,878,105,2014-08-01T11:00:00,1,20763021,206369
OK,105,48,878,105,2014-08-01T11:05:00,1,20763470,206369
OK,105,48,878,105,2014-08-01T11:10:00,0,20763919,206369
OK,105,48,878,105,2014-08-01T11:15:00,0,20764367,206369
OK,105,48,878,105,2014-08-01T11:20:00,0,20764816,206369
OK,105,48,878,105,2014-08-01T11:25:00,0,20765265,206369
OK,105,48,878,105,2014-08-01T11:30:00,0,20765714,206369
OK,154,32,878,154,2014-08-01T11:35:00,1,20766163,206369
OK,154,32,878,154,2014-08-01T11:40:00,1,20766612,206369
OK,154,32,878,154,2014-08-01T11:45:00,0,20767061,206369
OK,116,43,878,116,2014-08-01T11:50:00,1,20767510,206369
OK,116,43,878,116,2014-08-01T11:55:00,1,20767959,206369
OK,116,43,878,116,2014-08-01T12:00:00,0,20768408,206369
OK,116,43,878,116,2014-08-01T12:05:00,0,20768857,206369
OK,222,22,878,222,2014-08-01T12:10:00,1,20769306,206369
OK,222,22,878,222,2014-08-01T12:15:00,1,20769755,206369
OK,118,42,878,118,2014-08-01T12:20:00,1,20770204,206369
OK,118,42,878,118,2014-08-01T12:25:00,1,20770653,206369
OK,118,42,878,118,2014-08-01T12:30:00,0,20771102,206369
OK,118,42,878,118,2014-08-01T12:35:00,0,20771551,206369
OK,129,39,878,129,2014-08-01T12:40:00,2,20772000,206369
OK,129,39,878,129,2014-08-01T12:45:00,2,20772449,206369
OK,125,40,878,125,2014-08-01T12:50:00,0,20772898,206369
OK,112,45,878,112,2014-08-01T12:55:00,1,20773347,206369
OK,112,45,878,112,2014-08-01T13:00:00,1,20773796,206369
OK,217,23,878,217,2014-08-01T13:05:00,1,20774245,206369
OK,124,40,878,124,2014-08-01T13:10:00,3,20774694,206369
OK,122,41,878,122,2014-08-01T13:15:00,2,20775143,206369
OK,97,52,878,97,2014-08-01T13:20:00,3,20775592,206369
OK,109,46,878,109,2014-08-01T13:25:00,8,20776041,206369
OK,125,40,878,125,2014-08-01T13:30:00,8,20776490,206369
OK,102,49,878,102,2014-08-01T13:35:00,2,20776939,206369
OK,160,31,878,160,2014-08-01T13:40:00,2,20777388,206369
OK,160,31,878,160,2014-08-01T13:45:00,2,20777837,206369
OK,115,43,878,115,2014-08-01T13:50:00,0,20778286,206369
OK,115,43,878,115,2014-08-01T13:55:00,0,20778735,206369
OK,115,43,878,115,2014-08-01T14:00:00,0,20779184,206369
OK,115,43,878,115,2014-08-01T14:05:00,0,20779633,206369
OK,115,43,878,115,2014-08-01T14:10:00,0,20780082,206369
OK,115,43,878,115,2014-08-01T14:15:00,0,20780531,206369
OK,115,43,878,115,2014-08-01T14:20:00,0,20780980,206369
OK,116,43,878,116,2014-08-01T14:25:00,2,20781429,206369
OK,116,43,878,116,2014-08-01T14:30:00,2,20781878,206369
OK,116,43,878,116,2014-08-01T14:35:00,0,20782327,206369
OK,116,43,878,116,2014-08-01T14:40:00,0,20782776,206369
OK,116,43,878,116,2014-08-01T14:45:00,0,20783225,206369
OK,116,43,878,116,2014-08-01T14:50:00,0,20783674,206369
OK,116,43,878,116,2014-08-01T14:55:00,0,20784123,206369
OK,116,43,878,116,2014-08-01T15:00:00,0,20784572,206369
OK,116,43,878,116,2014-08-01T15:05:00,0,20785021,206369
OK,116,43,878,116,2014-08-01T15:10:00,0,20785470,206369
OK,95,53,878,95,2014-08-01T15:15:00,1,20785919,206369
OK,95,53,878,95,2014-08-01T15:20:00,1,20786368,206369
OK,95,53,878,95,2014-08-01T15:25:00,0,20786817,206369
OK,95,53,878,95,2014-08-01T15:30:00,0,20787266,206369
OK,95,53,878,95,2014-08-01T15:35:00,0,20787715,206369
OK,95,53,878,95,2014-08-01T15:40:00,0,20788164,206369
OK,95,53,878,95,2014-08-01T15:45:00,0,20788613,206369
OK,95,53,878,95,2014-08-01T15:50:00,0,20789062,206369
OK,95,53,878,95,2014-08-01T15:55:00,0,20789511,206369
OK,130,38,878,130,2014-08-01T16:00:00,1,20789960,206369
OK,130,38,878,130,2014-08-01T16:05:00,1,20790409,206369
OK,130,38,878,130,2014-08-01T16:10:00,0,20790858,206369
OK,130,38,878,130,2014-08-01T16:15:00,0,20791307,206369
OK,130,38,878,130,2014-08-01T16:20:00,0,20791756,206369
OK,130,38,878,130,2014-08-01T16:25:00,0,20792205,206369
OK,130,38,878,130,2014-08-01T16:30:00,0,20792654,206369
OK,130,38,878,130,2014-08-01T16:35:00,0,20793103,206369
OK,130,38,878,130,2014-08-01T16:40:00,0,20793552,206369
OK,130,38,878,130,2014-08-01T16:45:00,0,20794001,206369
OK,100,50,878,100,2014-08-01T16:50:00,1,20794450,206369
OK,100,50,878,100,2014-08-01T16:55:00,1,20794899,206369
OK,100,50,878,100,2014-08-01T17:00:00,0,20795348,206369
OK,100,50,878,100,2014-08-01T17:05:00,0,20795797,206369
OK,100,50,878,100,2014-08-01T17:10:00,0,20796246,206369
OK,121,41,878,121,2014-08-01T17:15:00,1,20796695,206369
OK,121,41,878,121,2014-08-01T17:20:00,1,20797144,206369
OK,121,41,878,121,2014-08-01T17:25:00,0,20797593,206369
OK,121,41,878,121,2014-08-01T17:30:00,0,20798042,206369
OK,121,41,878,121,2014-08-01T17:35:00,0,20798491,206369
OK,121,41,878,121,2014-08-01T17:40:00,0,20798940,206369
OK,121,41,878,121,2014-08-01T17:45:00,0,20799389,206369
OK,121,41,878,121,2014-08-01T17:50:00,0,20799838,206369
OK,121,41,878,121,2014-08-01T17:55:00,0,20800287,206369
OK,121,41,878,121,2014-08-01T18:00:00,0,20800736,206369
OK,121,41,878,121,2014-08-01T18:05:00,0,20801185,206369
OK,121,41,878,121,2014-08-01T18:10:00,0,20801634,206369
OK,121,41,878,121,2014-08-01T18:15:00,0,20802083,206369
OK,121,41,878,121,2014-08-01T18:20:00,0,20802532,206369
OK,121,41,878,121,2014-08-01T18:25:00,0,20802981,206369
OK,121,41,878,121,2014-08-01T18:30:00,0,20803430,206369
OK,121,41,878,121,2014-08-01T18:35:00,0,20803879,206369
OK,121,41,878,121,2014-08-01T18:40:00,0,20804328,206369
OK,121,41,878,121,2014-08-01T18:45:00,0,20804777,206369
OK,121,41,878,121,2014-08-01T18:50:00,0,20805226,206369
OK,121,41,878,121,2014-08-01T18:55:00,0,20805675,206369
OK,121,41,878,121,2014-08-01T19:00:00,0,20806124,206369
OK,121,41,878,121,2014-08-01T19:05:00,0,20806573,206369
OK,121,41,878,121,2014-08-01T19:10:00,0,20807022,206369
OK,121,41,878,121,2014-08-01T19:15:00,0,20807471,206369
OK,121,41,878,121,2014-08-01T19:20:00,0,20807920,206369
OK,121,41,878,121,2014-08-01T19:25:00,0,20808369,206369
OK,121,41,878,121,2014-08-01T19:30:00,0,20808818,206369
OK,121,41,878,121,2014-08-01T19:35:00,0,20809267,206369
OK,121,41,878,121,2014-08-01T19:40:00,0,20809716,206369
OK,121,41,878,121,2014-08-01T19:45:00,0,20810165,206369
OK,121,41,878,121,2014-08-01T19:50:00,0,20810614,206369
OK,121,41,878,121,2014-08-01T19:55:00,0,20811063,206369
OK,121,41,878,121,2014-08-01T22:00:00,0,20816792,206369
OK,121,41,878,121,2014-08-01T22:05:00,0,20817241,206369
OK,121,41,878,121,2014-08-02T00:00:00,0,20823231,206369
OK,121,41,878,121,2014-08-02T00:05:00,0,20823680,206369
OK,121,41,878,121,2014-08-02T00:10:00,0,20824129,206369
OK,121,41,878,121,2014-08-02T00:15:00,0,20824578,206369
OK,121,41,878,121,2014-08-02T00:20:00,0,20825027,206369
OK,121,41,878,121,2014-08-02T00:25:00,0,20825476,206369
OK,121,41,878,121,2014-08-02T00:30:00,0,20825925,206369
OK,121,41,878,121,2014-08-02T00:35:00,0,20826374,206369
OK,121,41,878,121,2014-08-02T00:40:00,0,20826823,206369
OK,121,41,878,121,2014-08-02T00:45:00,0,20827272,206369
OK,121,41,878,121,2014-08-02T00:50:00,0,20827721,206369
OK,121,41,878,121,2014-08-02T00:55:00,0,20828170,206369
OK,121,41,878,121,2014-08-02T01:00:00,0,20828619,206369
OK,121,41,878,121,2014-08-02T01:05:00,0,20829068,206369
OK,121,41,878,121,2014-08-02T01:10:00,0,20829517,206369
OK,121,41,878,121,2014-08-02T01:15:00,0,20829966,206369
OK,121,41,878,121,2014-08-02T01:20:00,0,20830415,206369
OK,121,41,878,121,2014-08-02T01:25:00,0,20830864,206369
OK,121,41,878,121,2014-08-02T01:30:00,0,20831313,206369
OK,121,41,878,121,2014-08-02T01:35:00,0,20831762,206369
OK,121,41,878,121,2014-08-02T01:40:00,0,20832211,206369
OK,121,41,878,121,2014-08-02T01:45:00,0,20832660,206369
OK,121,41,878,121,2014-08-02T01:50:00,0,20833109,206369
OK,121,41,878,121,2014-08-02T01:55:00,0,20833558,206369
OK,121,41,878,121,2014-08-02T02:00:00,0,20834007,206369
OK,121,41,878,121,2014-08-02T02:05:00,0,20834456,206369
OK,121,41,878,121,2014-08-02T02:10:00,0,20834905,206369
OK,121,41,878,121,2014-08-02T02:15:00,0,20835354,206369
OK,121,41,878,121,2014-08-02T02:20:00,0,20835803,206369
OK,121,41,878,121,2014-08-02T02:25:00,0,20836252,206369
OK,121,41,878,121,2014-08-02T02:30:00,0,20836701,206369
OK,121,41,878,121,2014-08-02T02:35:00,0,20837150,206369
OK,121,41,878,121,2014-08-02T02:40:00,0,20837599,206369
OK,121,41,878,121,2014-08-02T02:45:00,0,20838048,206369
OK,121,41,878,121,2014-08-02T02:50:00,0,20838497,206369
OK,121,41,878,121,2014-08-02T02:55:00,0,20838946,206369
OK,121,41,878,121,2014-08-02T03:00:00,0,20839395,206369
OK,121,41,878,121,2014-08-02T03:05:00,0,20839844,206369
OK,121,41,878,121,2014-08-02T03:10:00,0,20840293,206369
OK,121,41,878,121,2014-08-02T03:15:00,0,20840742,206369
OK,121,41,878,121,2014-08-02T03:20:00,0,20841191,206369
OK,121,41,878,121,2014-08-02T03:25:00,0,20841640,206369
OK,121,41,878,121,2014-08-02T03:30:00,0,20842089,206369
OK,121,41,878,121,2014-08-02T03:35:00,0,20842538,206369
OK,121,41,878,121,2014-08-02T03:40:00,0,20842987,206369
OK,121,41,878,121,2014-08-02T03:45:00,0,20843436,206369
OK,121,41,878,121,2014-08-02T03:50:00,0,20843885,206369
OK,121,41,878,121,2014-08-02T03:55:00,0,20844334,206369
OK,121,41,878,121,2014-08-02T06:00:00,0,20851788,206369
OK,121,41,878,121,2014-08-02T06:05:00,0,20852237,206369
OK,121,41,878,121,2014-08-02T06:10:00,0,20852686,206369
OK,121,41,878,121,2014-08-02T06:15:00,0,20853135,206369
OK,121,41,878,121,2014-08-02T06:20:00,0,20853584,206369
OK,121,41,878,121,2014-08-02T06:25:00,0,20854033,206369
OK,121,41,878,121,2014-08-02T06:30:00,0,20854482,206369
OK,121,41,878,121,2014-08-02T06:35:00,0,20854931,206369
OK,121,41,878,121,2014-08-02T06:40:00,0,20855380,206369
OK,121,41,878,121,2014-08-02T06:45:00,0,20855829,206369
OK,121,41,878,121,2014-08-02T06:50:00,0,20856278,206369
OK,121,41,878,121,2014-08-02T06:55:00,0,20856727,206369
OK,121,41,878,121,2014-08-02T07:00:00,0,20857176,206369
OK,121,41,878,121,2014-08-02T07:05:00,0,20857625,206369
OK,121,41,878,121,2014-08-02T07:10:00,0,20858074,206369
OK,107,47,878,107,2014-08-02T07:15:00,1,20858523,206369
OK,107,47,878,107,2014-08-02T07:20:00,0,20858972,206369
OK,107,47,878,107,2014-08-02T07:25:00,0,20859421,206369
OK,107,47,878,107,2014-08-02T07:30:00,0,20859870,206369
OK,107,47,878,107,2014-08-02T07:35:00,0,20860319,206369
OK,107,47,878,107,2014-08-02T07:40:00,0,20860768,206369
OK,107,47,878,107,2014-08-02T07:45:00,0,20861217,206369
OK,107,47,878,107,2014-08-02T07:50:00,0,20861666,206369
OK,107,47,878,107,2014-08-02T07:55:00,0,20862115,206369
OK,107,47,878,107,2014-08-02T08:00:00,0,20862564,206369
OK,141,35,878,141,2014-08-02T08:05:00,1,20863013,206369
OK,137,36,878,137,2014-08-02T08:10:00,3,20863462,206369
OK,137,36,878,137,2014-08-02T08:15:00,1,20863911,206369
OK,137,36,878,137,2014-08-02T08:20:00,0,20864360,206369
OK,261,19,878,261,2014-08-02T08:25:00,1,20864809,206369
OK,150,33,878,150,2014-08-02T08:30:00,4,20865258,206369
OK,102,49,878,102,2014-08-02T08:35:00,2,20865707,206369
OK,175,28,878,175,2014-08-02T08:40:00,1,20866156,206369
OK,175,28,878,175,2014-08-02T08:45:00,1,20866605,206369
OK,175,28,878,175,2014-08-02T08:50:00,0,20867054,206369
OK,115,43,878,115,2014-08-02T08:55:00,1,20867503,206369
OK,98,51,878,98,2014-08-02T09:00:00,2,20867952,206369
OK,104,48,878,104,2014-08-02T09:05:00,2,20868401,206369
OK,127,39,878,127,2014-08-02T09:10:00,1,20868850,206369
OK,127,39,878,127,2014-08-02T09:15:00,0,20869299,206369
OK,127,39,878,127,2014-08-02T09:20:00,0,20869748,206369
OK,127,39,878,127,2014-08-02T09:25:00,0,20870197,206369
OK,157,32,878,157,2014-08-02T09:30:00,1,20870646,206369
OK,157,32,878,157,2014-08-02T09:35:00,0,20871095,206369
OK,157,32,878,157,2014-08-02T09:40:00,0,20871544,206369
OK,157,32,878,157,2014-08-02T09:45:00,0,20871993,206369
OK,157,32,878,157,2014-08-02T09:50:00,0,20872442,206369
OK,157,32,878,157,2014-08-02T09:55:00,0,20872891,206369
OK,157,32,878,157,2014-08-02T10:00:00,0,20873340,206369
OK,157,32,878,157,2014-08-02T10:05:00,0,20873789,206369
OK,157,32,878,157,2014-08-02T10:10:00,0,20874238,206369
OK,157,32,878,157,2014-08-02T10:15:00,0,20874687,206369
OK,157,32,878,157,2014-08-02T10:20:00,0,20875136,206369
OK,106,47,878,106,2014-08-02T10:25:00,1,20875585,206369
OK,106,47,878,106,2014-08-02T10:30:00,0,20876034,206369
OK,106,47,878,106,2014-08-02T10:35:00,0,20876483,206369
OK,106,47,878,106,2014-08-02T10:40:00,0,20876932,206369
OK,138,36,878,138,2014-08-02T10:45:00,1,20877381,206369
OK,138,36,878,138,2014-08-02T10:50:00,0,20877830,206369
OK,108,46,878,108,2014-08-02T10:55:00,2,20878279,206369
OK,108,46,878,108,2014-08-02T11:00:00,0,20878728,206369
OK,108,46,878,108,2014-08-02T11:05:00,0,20879177,206369
OK,108,46,878,108,2014-08-02T11:10:00,0,20879626,206369
OK,108,46,878,108,2014-08-02T11:15:00,0,20880075,206369
OK,108,46,878,108,2014-08-02T11:20:00,0,20880524,206369
OK,108,46,878,108,2014-08-02T11:25:00,0,20880973,206369
OK,108,46,878,108,2014-08-02T11:30:00,1,20881422,206369
OK,108,46,878,108,2014-08-02T11:35:00,1,20881871,206369
OK,87,58,878,87,2014-08-02T11:40:00,1,20882320,206369
OK,87,58,878,87,2014-08-02T11:45:00,1,20882769,206369
OK,87,58,878,87,2014-08-02T11:50:00,0,20883218,206369
OK,102,49,878,102,2014-08-02T11:55:00,3,20883667,206369
OK,102,49,878,102,2014-08-02T12:00:00,3,20884116,206369
OK,102,49,878,102,2014-08-02T12:05:00,0,20884565,206369
OK,90,56,878,90,2014-08-02T12:10:00,1,20885014,206369
OK,90,56,878,90,2014-08-02T12:15:00,1,20885463,206369
OK,90,56,878,90,2014-08-02T12:20:00,0,20885912,206369
OK,90,56,878,90,2014-08-02T12:25:00,0,20886361,206369
OK,90,56,878,90,2014-08-02T12:30:00,0,20886810,206369
OK,90,56,878,90,2014-08-02T12:35:00,0,20887259,206369
OK,90,56,878,90,2014-08-02T12:40:00,0,20887708,206369
OK,90,56,878,90,2014-08-02T12:45:00,0,20888157,206369
OK,90,56,878,90,2014-08-02T12:50:00,0,20888606,206369
OK,90,56,878,90,2014-08-02T12:55:00,0,20889055,206369
OK,90,56,878,90,2014-08-02T13:00:00,0,20889504,206369
OK,90,56,878,90,2014-08-02T13:05:00,0,20889953,206369
OK,90,56,878,90,2014-08-02T13:10:00,0,20890402,206369
OK,90,56,878,90,2014-08-02T13:15:00,0,20890851,206369
OK,90,56,878,90,2014-08-02T13:20:00,0,20891300,206369
OK,90,56,878,90,2014-08-02T13:25:00,0,20891749,206369
OK,90,56,878,90,2014-08-02T13:30:00,0,20892198,206369
OK,118,42,878,118,2014-08-02T13:35:00,1,20892647,206369
OK,118,42,878,118,2014-08-02T13:40:00,1,20893096,206369
OK,118,42,878,118,2014-08-02T13:45:00,0,20893545,206369
OK,118,42,878,118,2014-08-02T13:50:00,0,20893994,206369
OK,118,42,878,118,2014-08-02T13:55:00,0,20894443,206369
OK,118,42,878,118,2014-08-02T14:00:00,0,20894892,206369
OK,118,42,878,118,2014-08-02T14:05:00,0,20895341,206369
OK,118,42,878,118,2014-08-02T14:10:00,0,20895790,206369
OK,118,42,878,118,2014-08-02T14:15:00,0,20896239,206369
OK,118,42,878,118,2014-08-02T14:20:00,0,20896688,206369
OK,118,42,878,118,2014-08-02T14:25:00,0,20897137,206369
OK,118,42,878,118,2014-08-02T14:30:00,0,20897586,206369
OK,118,42,878,118,2014-08-02T14:35:00,0,20898035,206369
OK,127,39,878,127,2014-08-02T14:40:00,1,20898484,206369
OK,127,39,878,127,2014-08-02T14:45:00,1,20898933,206369
OK,127,39,878,127,2014-08-02T14:50:00,0,20899382,206369
OK,127,39,878,127,2014-08-02T14:55:00,0,20899831,206369
OK,127,39,878,127,2014-08-02T15:00:00,0,20900280,206369
OK,127,39,878,127,2014-08-02T15:05:00,0,20900729,206369
OK,127,39,878,127,2014-08-02T15:10:00,0,20901178,206369
OK,127,39,878,127,2014-08-02T15:15:00,0,20901627,206369
OK,128,39,878,128,2014-08-02T15:20:00,1,20902076,206369
OK,128,39,878,128,2014-08-02T15:25:00,1,20902525,206369
OK,128,39,878,128,2014-08-02T15:30:00,0,20902974,206369
OK,79,64,878,79,2014-08-02T15:35:00,1,20903423,206369
OK,79,64,878,79,2014-08-02T15:40:00,1,20903872,206369
OK,79,64,878,79,2014-08-02T15:45:00,0,20904321,206369
OK,79,64,878,79,2014-08-02T15:50:00,0,20904770,206369
OK,79,64,878,79,2014-08-02T15:55:00,0,20905219,206369
OK,79,64,878,79,2014-08-02T16:00:00,0,20905668,206369
OK,79,64,878,79,2014-08-02T16:05:00,0,20906117,206369
OK,79,64,878,79,2014-08-02T16:10:00,0,20906566,206369
OK,79,64,878,79,2014-08-02T16:15:00,0,20907015,206369
OK,79,64,878,79,2014-08-02T16:20:00,0,20907464,206369
OK,79,64,878,79,2014-08-02T16:25:00,0,20907913,206369
OK,79,64,878,79,2014-08-02T16:30:00,0,20908362,206369
OK,79,64,878,79,2014-08-02T16:35:00,0,20908811,206369
OK,79,64,878,79,2014-08-02T16:40:00,0,20909260,206369
OK,79,64,878,79,2014-08-02T16:45:00,0,20909709,206369
OK,79,64,878,79,2014-08-02T16:50:00,0,20910158,206369
OK,79,64,878,79,2014-08-02T16:55:00,0,20910607,206369
OK,79,64,878,79,2014-08-02T17:00:00,0,20911056,206369
OK,136,37,878,136,2014-08-02T17:05:00,1,20911505,206369
OK,136,37,878,136,2014-08-02T17:10:00,1,20911954,206369
OK,136,37,878,136,2014-08-02T17:15:00,0,20912403,206369
OK,136,37,878,136,2014-08-02T17:20:00,0,20912852,206369
OK,136,37,878,136,2014-08-02T17:25:00,0,20913301,206369
OK,136,37,878,136,2014-08-02T17:30:00,0,20913750,206369
OK,136,37,878,136,2014-08-02T17:35:00,0,20914199,206369
OK,136,37,878,136,2014-08-02T17:40:00,0,20914648,206369
OK,136,37,878,136,2014-08-02T17:45:00,0,20915097,206369
OK,136,37,878,136,2014-08-02T17:50:00,0,20915546,206369
OK,136,37,878,136,2014-08-02T17:55:00,0,20915995,206369
OK,136,37,878,136,2014-08-02T18:00:00,0,20916444,206369
OK,136,37,878,136,2014-08-02T18:05:00,0,20916893,206369
OK,136,37,878,136,2014-08-02T18:10:00,0,20917342,206369
OK,136,37,878,136,2014-08-02T18:15:00,0,20917791,206369
OK,136,37,878,136,2014-08-02T18:20:00,0,20918240,206369
OK,136,37,878,136,2014-08-02T18:25:00,0,20918689,206369
OK,136,37,878,136,2014-08-02T18:30:00,0,20919138,206369
OK,129,39,878,129,2014-08-02T18:35:00,1,20919587,206369
OK,129,39,878,129,2014-08-02T18:40:00,0,20920036,206369
OK,129,39,878,129,2014-08-02T18:45:00,0,20920485,206369
OK,129,39,878,129,2014-08-02T18:50:00,0,20920934,206369
OK,129,39,878,129,2014-08-02T18:55:00,0,20921383,206369
OK,129,39,878,129,2014-08-02T19:00:00,0,20921832,206369
OK,129,39,878,129,2014-08-02T19:05:00,0,20922281,206369
OK,93,54,878,93,2014-08-02T19:10:00,1,20922730,206369
OK,93,54,878,93,2014-08-02T19:15:00,0,20923179,206369
OK,86,58,878,86,2014-08-02T19:20:00,1,20923628,206369
OK,86,58,878,86,2014-08-02T19:25:00,1,20924077,206369
OK,86,58,878,86,2014-08-02T19:30:00,0,20924526,206369
OK,86,58,878,86,2014-08-02T19:35:00,0,20924975,206369
OK,86,58,878,86,2014-08-02T19:40:00,0,20925424,206369
OK,86,58,878,86,2014-08-02T19:45:00,0,20925873,206369
OK,86,58,878,86,2014-08-02T19:50:00,0,20926322,206369
OK,86,58,878,86,2014-08-02T19:55:00,0,20926771,206369
OK,86,58,878,86,2014-08-02T20:00:00,0,20927220,206369
OK,86,58,878,86,2014-08-02T20:05:00,0,20927669,206369
OK,86,58,878,86,2014-08-02T20:10:00,0,20928118,206369
OK,86,58,878,86,2014-08-02T20:15:00,0,20928567,206369
OK,86,58,878,86,2014-08-02T20:20:00,0,20929016,206369
OK,86,58,878,86,2014-08-02T20:25:00,0,20929465,206369
OK,86,58,878,86,2014-08-02T20:30:00,0,20929914,206369
OK,86,58,878,86,2014-08-02T20:35:00,0,20930363,206369
OK,86,58,878,86,2014-08-02T20:40:00,0,20930812,206369
OK,86,58,878,86,2014-08-02T20:45:00,0,20931261,206369
OK,86,58,878,86,2014-08-02T20:50:00,0,20931710,206369
OK,86,58,878,86,2014-08-02T20:55:00,0,20932159,206369
OK,86,58,878,86,2014-08-02T21:00:00,0,20932608,206369
OK,86,58,878,86,2014-08-02T21:05:00,0,20933057,206369
OK,86,58,878,86,2014-08-02T21:10:00,0,20933506,206369
OK,86,58,878,86,2014-08-02T21:15:00,0,20933955,206369
OK,88,57,878,88,2014-08-02T21:20:00,1,20934404,206369
OK,92,54,878,92,2014-08-02T21:25:00,2,20934853,206369
OK,96,52,878,96,2014-08-02T21:30:00,0,20935302,206369
OK,96,52,878,96,2014-08-02T21:35:00,0,20935751,206369
OK,96,52,878,96,2014-08-02T21:40:00,0,20936200,206369
OK,96,52,878,96,2014-08-02T21:45:00,0,20936649,206369
OK,96,52,878,96,2014-08-02T21:50:00,0,20937098,206369
OK,105,48,878,105,2014-08-02T21:55:00,1,20937547,206369
OK,105,48,878,105,2014-08-02T22:00:00,0,20937996,206369
OK,105,48,878,105,2014-08-02T22:05:00,0,20938445,206369
OK,105,48,878,105,2014-08-02T22:10:00,0,20938894,206369
OK,105,48,878,105,2014-08-02T22:15:00,0,20939343,206369
OK,105,48,878,105,2014-08-02T22:20:00,0,20939792,206369
OK,105,48,878,105,2014-08-02T22:25:00,0,20940241,206369
OK,105,48,878,105,2014-08-02T22:30:00,0,20940690,206369
OK,105,48,878,105,2014-08-02T22:35:00,0,20941139,206369
OK,105,48,878,105,2014-08-02T22:40:00,0,20941588,206369
OK,105,48,878,105,2014-08-02T22:45:00,0,20942037,206369
OK,105,48,878,105,2014-08-02T22:50:00,0,20942486,206369
OK,105,48,878,105,2014-08-02T22:55:00,0,20942935,206369
OK,105,48,878,105,2014-08-02T23:00:00,0,20943384,206369
OK,105,48,878,105,2014-08-02T23:10:00,0,20943833,206369
OK,105,48,878,105,2014-08-02T23:15:00,0,20944282,206369
OK,105,48,878,105,2014-08-02T23:20:00,0,20944731,206369
OK,105,48,878,105,2014-08-02T23:25:00,0,20945180,206369
OK,105,48,878,105,2014-08-02T23:30:00,0,20945629,206369
OK,105,48,878,105,2014-08-02T23:35:00,0,20946078,206369
OK,105,48,878,105,2014-08-02T23:40:00,0,20946527,206369
OK,105,48,878,105,2014-08-02T23:45:00,0,20946976,206369
OK,105,48,878,105,2014-08-02T23:50:00,0,20947425,206369
OK,105,48,878,105,2014-08-02T23:55:00,0,20947874,206369
OK,105,48,878,105,2014-08-03T00:00:00,0,20948323,206369
OK,105,48,878,105,2014-08-03T00:05:00,0,20948772,206369
OK,105,48,878,105,2014-08-03T00:10:00,0,20949220,206369
OK,105,48,878,105,2014-08-03T00:15:00,0,20949669,206369
OK,105,48,878,105,2014-08-03T00:20:00,0,20950118,206369
OK,105,48,878,105,2014-08-03T00:25:00,0,20950567,206369
OK,105,48,878,105,2014-08-03T00:30:00,0,20951016,206369
OK,105,48,878,105,2014-08-03T00:35:00,0,20951465,206369
OK,105,48,878,105,2014-08-03T00:40:00,0,20951914,206369
OK,105,48,878,105,2014-08-03T00:45:00,0,20952363,206369
OK,105,48,878,105,2014-08-03T00:50:00,0,20952812,206369
OK,105,48,878,105,2014-08-03T00:55:00,0,20953261,206369
OK,105,48,878,105,2014-08-03T01:00:00,0,20953710,206369